Weather History for Nacogdoches, TX

Change the Weather History Date:

Wednesday, April 17, 2013

  Actual Average Record
Temperature  
Mean Temperature 78 °F -  
Max Temperature 86 °F 75 °F 91 °F (2006)
Min Temperature 71 °F 54 °F 33 °F (1999)
Cooling Degree Days 12    
Growing Degree Days 28 (Base 50)    
Moisture  
Dew Point 67 °F    
Average Humidity 77    
Maximum Humidity 88    
Minimum Humidity 55    
Precipitation  
Precipitation 0.00 in - - ()
Sea Level Pressure  
Sea Level Pressure 29.90 in    
Wind  
Wind Speed 11 mph (SSE)    
Max Wind Speed 23 mph    
Max Gust Speed 33 mph    
Visibility 10 miles    
Events      
Averages and records for this station are not official NWS values.
T = Trace of Precipitation, MM = Missing Value Source: NWS Daily Summary

Daily Weather History Graph

Daily Weather History Graph

Search for Another Location

Airport:

Trip Planner

Search our weather history database for the weather conditions in past years. The results will help you decide how hot, cold, wet, or windy it might be!

Date:

Astronomy

Apr. 17, 2013 Rise Set
Actual Time 6:47 AM CDT 7:49 PM CDT
Civil Twilight 6:22 AM CDT 8:14 PM CDT
Nautical Twilight 5:53 AM CDT 8:44 PM CDT
Astronomical Twilight 5:22 AM CDT 9:14 PM CDT
Moon 12:09 PM CDT (4/17) 1:19 AM CDT (4/17)
Length of Visible Light 13h 51m
Length of Day
13h 01m
Waxing Crescent, 42% of the Moon is Illuminated
Apr 17
Waxing Crescent
Apr 18
First Quarter
Apr 25
Full
May 2
Last Quarter
May 9
New

Hourly Weather History & Observations

Time (CDT) Temp. Heat Index Dew Point Humidity Pressure Visibility Wind Dir Wind Speed Gust Speed Precip Events Conditions
12:15 AM 73.4 °F - 68.0 °F 83% 29.96 in 10.0 mi SSE 10.4 mph - N/A   Overcast
12:35 AM 75.2 °F - 68.0 °F 78% 29.97 in 10.0 mi South 11.5 mph - N/A   Overcast
12:55 AM 73.4 °F - 68.0 °F 83% 29.97 in 10.0 mi SSE 8.1 mph - N/A   Overcast
1:15 AM 73.4 °F - 68.0 °F 83% 29.97 in 10.0 mi SSE 8.1 mph - N/A   Overcast
1:35 AM 73.4 °F - 68.0 °F 83% 29.97 in 10.0 mi SSE 8.1 mph - N/A   Overcast
1:55 AM 73.4 °F - 68.0 °F 83% 29.97 in 1.8 mi SSE 8.1 mph - N/A   Overcast
2:15 AM 71.6 °F - 68.0 °F 88% 29.97 in 7.0 mi SSE 6.9 mph - N/A   Overcast
2:35 AM 71.6 °F - 68.0 °F 88% 29.96 in 8.0 mi SSE 5.8 mph - N/A   Overcast
2:55 AM 71.6 °F - 68.0 °F 88% 29.96 in 8.0 mi SSE 5.8 mph - N/A   Overcast
3:15 AM 71.6 °F - 68.0 °F 88% 29.96 in 9.0 mi South 10.4 mph - N/A   Overcast
3:35 AM 71.6 °F - 68.0 °F 88% 29.95 in 9.0 mi SSE 6.9 mph - N/A   Overcast
3:55 AM 71.6 °F - 68.0 °F 88% 29.95 in 10.0 mi SE 6.9 mph - N/A   Overcast
4:15 AM 71.6 °F - 68.0 °F 88% 29.95 in 10.0 mi SSE 8.1 mph - N/A   Overcast
4:35 AM 71.6 °F - 68.0 °F 88% 29.96 in 10.0 mi SE 5.8 mph - N/A   Overcast
4:55 AM 71.6 °F - 68.0 °F 88% 29.96 in 10.0 mi SSE 6.9 mph - N/A   Overcast
5:15 AM 71.6 °F - 68.0 °F 88% 29.96 in 10.0 mi SSE 8.1 mph - N/A   Overcast
5:35 AM 71.6 °F - 68.0 °F 88% 29.96 in 10.0 mi SSE 9.2 mph - N/A   Overcast
5:55 AM 71.6 °F - 68.0 °F 88% 29.96 in 10.0 mi SSE 5.8 mph - N/A   Overcast
6:15 AM 71.6 °F - 68.0 °F 88% 29.96 in 10.0 mi SSE 6.9 mph - N/A   Overcast
6:35 AM 71.6 °F - 68.0 °F 88% 29.97 in 10.0 mi South 6.9 mph - N/A   Overcast
6:55 AM 71.6 °F - 68.0 °F 88% 29.97 in 10.0 mi SSE 6.9 mph - N/A   Overcast
7:15 AM 71.6 °F - 68.0 °F 88% 29.98 in 10.0 mi SSE 6.9 mph - N/A   Overcast
7:35 AM 71.6 °F - 66.2 °F 83% 29.97 in 10.0 mi SE 9.2 mph - N/A   Overcast
7:55 AM 71.6 °F - 66.2 °F 83% 29.98 in 10.0 mi SSE 8.1 mph - N/A   Overcast
8:15 AM 73.4 °F - 68.0 °F 83% 29.98 in 10.0 mi SSE 9.2 mph - N/A   Overcast
8:35 AM 73.4 °F - 68.0 °F 83% 29.98 in 10.0 mi SSE 6.9 mph - N/A   Overcast
9:15 AM 75.2 °F - 68.0 °F 78% 29.97 in 10.0 mi SSE 12.7 mph 16.1 mph N/A   Overcast
9:35 AM 75.2 °F - 68.0 °F 78% 29.97 in 10.0 mi SSE 12.7 mph 18.4 mph N/A   Mostly Cloudy
9:55 AM 75.2 °F - 68.0 °F 78% 29.97 in 10.0 mi SSE 11.5 mph 19.6 mph N/A   Overcast
10:15 AM 77.0 °F - 68.0 °F 74% 29.96 in 10.0 mi SSE 12.7 mph 18.4 mph N/A   Overcast
10:35 AM 77.0 °F - 66.2 °F 69% 29.95 in 10.0 mi SSE 15.0 mph 20.7 mph N/A   Overcast
10:55 AM 77.0 °F - 66.2 °F 69% 29.95 in 10.0 mi SSE 12.7 mph 17.3 mph N/A   Overcast
11:15 AM 78.8 °F - 66.2 °F 65% 29.95 in 10.0 mi South 13.8 mph 20.7 mph N/A   Overcast
11:35 AM 78.8 °F - 66.2 °F 65% 29.94 in 10.0 mi SSE 10.4 mph 24.2 mph N/A   Overcast
11:55 AM 80.6 °F 83.2 °F 68.0 °F 65% 29.93 in 10.0 mi SSE 13.8 mph 20.7 mph N/A   Overcast
12:15 PM 80.6 °F 83.2 °F 68.0 °F 65% 29.92 in 10.0 mi SSE 18.4 mph 25.3 mph N/A   Overcast
12:35 PM 82.4 °F 84.6 °F 66.2 °F 58% 29.92 in 10.0 mi SSE 12.7 mph 25.3 mph N/A   Mostly Cloudy
12:55 PM 82.4 °F 84.6 °F 66.2 °F 58% 29.91 in 10.0 mi SSE 16.1 mph 33.4 mph N/A   Mostly Cloudy
1:15 PM 82.4 °F 84.6 °F 66.2 °F 58% 29.90 in 10.0 mi SSE 13.8 mph 21.9 mph N/A   Overcast
1:35 PM 82.4 °F 84.6 °F 66.2 °F 58% 29.90 in 10.0 mi SSE 17.3 mph 27.6 mph N/A   Mostly Cloudy
1:55 PM 82.4 °F 84.6 °F 66.2 °F 58% 29.89 in 10.0 mi SSE 12.7 mph 21.9 mph N/A   Mostly Cloudy
2:15 PM 84.2 °F 86.6 °F 66.2 °F 55% 29.88 in 10.0 mi SE 13.8 mph 28.8 mph N/A   Mostly Cloudy
2:35 PM 82.4 °F 84.6 °F 66.2 °F 58% 29.87 in 10.0 mi SSE 16.1 mph 26.5 mph N/A   Overcast
2:55 PM 84.2 °F 86.6 °F 66.2 °F 55% 29.85 in 10.0 mi South 20.7 mph 26.5 mph N/A   Mostly Cloudy
3:35 PM 84.2 °F 86.6 °F 66.2 °F 55% 29.83 in 10.0 mi SSE 23.0 mph 31.1 mph N/A   Mostly Cloudy
3:55 PM 82.4 °F 84.6 °F 66.2 °F 58% 29.83 in 10.0 mi SSE 17.3 mph 27.6 mph N/A   Mostly Cloudy
4:15 PM 82.4 °F 85.4 °F 68.0 °F 62% 29.82 in 10.0 mi South 18.4 mph 31.1 mph N/A   Mostly Cloudy
4:35 PM 80.6 °F 83.2 °F 68.0 °F 65% 29.82 in 10.0 mi SSE 18.4 mph 29.9 mph N/A   Mostly Cloudy
4:55 PM 78.8 °F - 68.0 °F 69% 29.82 in 10.0 mi SSE 18.4 mph 27.6 mph N/A   Overcast
5:15 PM 75.2 °F - 69.8 °F 83% 29.82 in 10.0 mi South 17.3 mph 23.0 mph N/A   Overcast
5:35 PM 75.2 °F - 69.8 °F 83% 29.82 in 9.0 mi SSE 12.7 mph 23.0 mph N/A   Overcast
5:55 PM 73.4 °F - 69.8 °F 88% 29.82 in 8.0 mi South 12.7 mph 19.6 mph N/A   Overcast
6:15 PM 73.4 °F - 69.8 °F 88% 29.81 in 9.0 mi SSE 9.2 mph 23.0 mph N/A   Overcast
6:35 PM 73.4 °F - 69.8 °F 88% 29.80 in 10.0 mi South 15.0 mph 21.9 mph N/A   Overcast
6:55 PM 75.2 °F - 69.8 °F 83% 29.80 in 10.0 mi South 10.4 mph 18.4 mph N/A   Overcast
7:15 PM 75.2 °F - 68.0 °F 78% 29.80 in 10.0 mi SSE 16.1 mph 24.2 mph N/A   Overcast
7:35 PM 75.2 °F - 68.0 °F 78% 29.79 in 10.0 mi SSE 15.0 mph 20.7 mph N/A   Overcast
7:55 PM 75.2 °F - 66.2 °F 73% 29.79 in 10.0 mi SSE 13.8 mph 20.7 mph N/A   Overcast
8:15 PM 75.2 °F - 66.2 °F 73% 29.78 in 10.0 mi South 12.7 mph 20.7 mph N/A   Overcast
8:35 PM 75.2 °F - 66.2 °F 73% 29.79 in 10.0 mi South 11.5 mph 19.6 mph N/A   Overcast
8:55 PM 75.2 °F - 66.2 °F 73% 29.80 in 10.0 mi SSE 12.7 mph 19.6 mph N/A   Overcast
9:15 PM 75.2 °F - 66.2 °F 73% 29.80 in 10.0 mi South 15.0 mph 23.0 mph N/A   Overcast
9:55 PM 75.2 °F - 66.2 °F 73% 29.80 in 10.0 mi SSE 11.5 mph 19.6 mph N/A   Overcast
10:15 PM 73.4 °F - 66.2 °F 78% 29.81 in 10.0 mi South 13.8 mph 24.2 mph N/A   Overcast
10:35 PM 73.4 °F - 66.2 °F 78% 29.81 in 10.0 mi SSE 13.8 mph 25.3 mph N/A   Overcast
10:55 PM 73.4 °F - 66.2 °F 78% 29.81 in 10.0 mi South 11.5 mph 20.7 mph N/A   Overcast
11:15 PM 73.4 °F - 66.2 °F 78% 29.81 in 10.0 mi South 13.8 mph 20.7 mph N/A   Overcast
11:35 PM 73.4 °F - 66.2 °F 78% 29.81 in 10.0 mi South 11.5 mph 16.1 mph N/A   Overcast
11:55 PM 73.4 °F - 66.2 °F 78% 29.80 in 10.0 mi South 13.8 mph 25.3 mph N/A   Overcast